Regional Weather Roundup
Issued by NWS Albany, NY

Home | Current Version | Previous Version | Text Only | Print | Product List | Glossary Off
Versions: 1 2 3 4 5 6 7 8 9 10 11 12 13 14 15 16 17 18 19 20 21 22 23 24 25 26 27 28 29 30 31 32 33 34 35 36 37 38 39 40 41 42 43 44 45 46 47 48 49 50

000
ASUS41 KALY 231610
RWRALY

NEW YORK STATE HOURLY WEATHER ROUNDUP
NATIONAL WEATHER SERVICE ALBANY NY
1200 PM EDT WED AUG 23 2017

NOTE: "FAIR" INDICATES FEW OR NO CLOUDS BELOW 12,000 FEET WITH NO
SIGNIFICANT WEATHER AND/OR NO OBSTRUCTIONS TO VISIBILITY.

NYZ032-033-038>043-046>054-057>066-NYZ062>081-082-084-231700-
EAST


CITY           SKY/WX    TMP DP  RH WIND       PRES   REMARKS
ALBANY         MOSUNNY   74  55  51 NW13G20   29.83F
GLENS FALLS    PTSUNNY   73  52  47 W8G21     29.80S
POUGHKEEPSIE   PTSUNNY   76  54  46 W9        29.83S
NEWBURGH       MOSUNNY   75  57  53 W10G17    29.87S
MONTGOMERY     MOSUNNY   76  54  46 VRB3      29.85S
WHITE PLAINS   SUNNY     77  54  44 NW13      29.84S
ISLIP          CLOUDY    81  66  60 NW10      29.82S
NEW YORK CITY  PTSUNNY   78  55  44 NW14      29.83F
CENTRAL PARK   SUNNY     77  54  44 VRB3      29.87F
$$

NYZ005>009-017-018-044>046-055-056-231700-
CENTRAL


CITY           SKY/WX    TMP DP  RH WIND       PRES   REMARKS
FULTON         MOSUNNY   71  55  56 W17G23    29.86S
SYRACUSE       PTSUNNY   71  54  54 W13G21    29.86R
ROME           PTSUNNY   68  56  65 W13       29.84F
ELMIRA         MOSUNNY   70  36  28 NW8       29.89S
BINGHAMTON     MOSUNNY   66  51  58 NW10G18   29.90S
MONTICELLO     CLOUDY    68  53  58 W9G16     29.91S
$$

NYZ026>034-041>043-087-231700-
NORTH


CITY           SKY/WX    TMP DP  RH WIND       PRES   REMARKS
WATERTOWN      MOSUNNY   69  57  65 W15G24    29.82S
FORT DRUM      NOT AVBL
OGDENSBURG     PTSUNNY   71  55  57 W12G17    29.78S
MASSENA        MOSUNNY   71  55  56 SW13G22   29.77S
SARANAC LAKE   CLOUDY    64  53  67 SW15G22   29.80S
PLATTSBURGH    PTSUNNY   73  50  44 W10G20    29.75S
$$

NYZ001>004-010>016-019>021-085-231700-
WEST


CITY           SKY/WX    TMP DP  RH WIND       PRES   REMARKS
NIAGARA FALLS  MOSUNNY   73  50  44 W16G23    29.87S
BUFFALO        MOSUNNY   71  54  54 SW18G25   29.88S
DUNKIRK        MOSUNNY   70  55  59 W15G21    29.91S
JAMESTOWN      PTSUNNY   68  52  56 W13       29.95S
WELLSVILLE     PTSUNNY   66  50  56 NW14      29.96R
ROCHESTER      MOSUNNY   71  51  49 NW12      29.88S
PENN YAN       SUNNY     71  47  42 W8G21     29.90S
$$

             KEY
       WCI = WIND CHILL INDEX
       VSB = VISIBILITY
       HX  = HEAT INDEX
$$



USA.gov is the U.S. government's official web portal to all federal, state and local government web resources and services.